Home   Weather   Dakar   Past weeks
Flag for Senegal

Past Weather in Dakar, Senegal — Yesterday and Last 2 Weeks

Now
88 °F

Sunny.


Feels Like: 100 °F
Forecast: N/A
Wind: 14 mph from Northeast

Location: Dakar / Yoff

Current Time: Oct 20, 2019 at 2:12:48 pm

Latest Report: Oct 20, 2019 at 1:00 pm


Visibility: 10 mi

Pressure: 29.89 "Hg

Humidity: 70%

Dew Point: 77 °F

Location of DakarLocation

Past Weather in Dakar — Graph

°F

Dakar Temperature Yesterday

Maximum temperature yesterday: 90 °F (at 4:00 pm)
Minimum temperature yesterday: 81 °F (at 6:00 am)
Average temperature yesterday: 85 °F

High & Low Weather Summary for the Past Weeks

 TemperatureHumidityPressure
High93 °F (Oct 13, 2:00 pm)100% (Oct 6, 8:00 am)29.95 "Hg (Oct 6, 8:00 am)
Low75 °F (Oct 16, 7:00 am)62% (Oct 17, 2:00 pm)29.71 "Hg (Oct 12, 6:00 pm)
Average84 °F84%29.85 "Hg
* Reported Oct 5 12:00 pm — Oct 20 12:00 pm, Dakar. Weather by CustomWeather, © 2019

Note: Actual official high and low records may vary slightly from our data, if they occured in-between our weather recording intervals... More about our weather records

Advertising

Dakar Weather History for the Previous 24 Hours

Scroll right to see more
 ConditionsComfort  
Time TempWeatherWind HumidityBarometerVisibility
12:00 pm
Sun, Oct 20
88 °FSunny.12 mph70%29.89 "Hg10 mi
11:00 am88 °FSunny.7 mph70%29.89 "Hg10 mi
10:00 am86 °FSunny.14 mph75%29.89 "Hg10 mi
9:00 am84 °FSunny.12 mph79%29.86 "Hg10 mi
8:00 am82 °FSunny.12 mph79%29.83 "Hg10 mi
7:00 am82 °FClear.12 mph79%29.83 "Hg5 mi
6:00 am82 °FClear.16 mph84%29.83 "Hg5 mi
3:00 am82 °FClear.12 mph79%29.80 "Hg5 mi
12:00 am84 °FClear.9 mph74%29.83 "Hg5 mi
11:00 pm
Sat, Oct 19
84 °FClear.12 mph79%29.86 "Hg5 mi
10:00 pm84 °FClear.7 mph79%29.86 "Hg5 mi
9:00 pm84 °FClear.14 mph79%29.83 "Hg5 mi
8:00 pm84 °FClear.7 mph84%29.83 "Hg5 mi
6:00 pm86 °FSunny.12 mph79%29.80 "Hg10 mi
4:00 pm90 °FSunny.9 mph71%29.83 "Hg10 mi
3:00 pm88 °FScattered clouds.7 mph79%29.89 "HgN/A
2:00 pm86 °FScattered clouds.9 mph89%29.83 "HgN/A
Weather by CustomWeather, © 2019

See weather overview